This is the latest recevied weather packets stored in our database for station/object OK2ILA-6. If no packets are shown the sender has not sent any weather packets the latest 10 day(s).
| Time | Temp. | Humidity | Pressure | Rain* | Wind** | Luminosity | Snow |
|---|---|---|---|---|---|---|---|
| 1787643603 | 13.33° C | 82% | 1018.2 hPa | - | - | - | - |
| 1787643003 | 13.33° C | 81% | 1018.2 hPa | - | - | - | - |
| 1787642402 | 13.33° C | 81% | 1018 hPa | - | - | - | - |
| 1787641803 | 13.33° C | 80% | 1017.6 hPa | - | - | - | - |
| 1787641203 | 13.89° C | 79% | 1017.8 hPa | - | - | - | - |
| 1787640603 | 13.89° C | 78% | 1017.6 hPa | - | - | - | - |
| 1787640003 | 13.33° C | 78% | 1017.8 hPa | - | - | - | - |
| 1787639402 | 13.89° C | 78% | 1017.6 hPa | - | - | - | - |
| 1787638803 | 13.89° C | 78% | 1017.6 hPa | - | - | - | - |
| 1787637603 | 13.89° C | 80% | 1017.8 hPa | - | - | - | - |
| 1787637002 | 13.33° C | 78% | 1018 hPa | - | - | - | - |
| 1787636402 | 13.33° C | 79% | 1018 hPa | - | - | - | - |
| 1787635803 | 13.33° C | 80% | 1017.8 hPa | - | - | - | - |
| 1787635203 | 12.78° C | 82% | 1018 hPa | - | - | - | - |
| 1787634603 | 12.22° C | 83% | 1018.1 hPa | - | - | - | - |
| 1787634002 | 12.22° C | 84% | 1018.1 hPa | - | - | - | - |
| 1787633402 | 12.22° C | 84% | 1018.2 hPa | - | - | - | - |
| 1787632803 | 12.22° C | 84% | 1018 hPa | - | - | - | - |
| 1787632203 | 12.22° C | 84% | 1017.8 hPa | - | - | - | - |
| 1787631603 | 12.22° C | 84% | 1017.8 hPa | - | - | - | - |
| 1787631002 | 12.22° C | 84% | 1018 hPa | - | - | - | - |
| 1787630402 | 11.67° C | 84% | 1018.2 hPa | - | - | - | - |
| 1787629803 | 11.67° C | 84% | 1018.2 hPa | - | - | - | - |
| 1787629203 | 11.67° C | 84% | 1017.8 hPa | - | - | - | - |
| 1787628603 | 12.22° C | 84% | 1017.8 hPa | - | - | - | - |
* Rain since midnight (hover to see other rain measurements)
** Current wind speed in m/s (hover to see current wind gust speed)